Date String (YYYY-MM-DD hh:mm:ss) UTC,Instrument flags,Ambient pressure (hPa),Sample flow (lpm),Bypass flow (lpm),Sample temperature (°C),Ambient temperature (°C),ASC tube jacket temperature (°C),LED temperature (°C),Box temperature (°C),Sample RH (%),Span deviation,Mass concentration (μg/m³),Mass concentration (μg/m³),Mass concentration (μg/m³)
DateTimeUTC,F1_M11,P_M11,Q1_M11,Q2_M11,T1_M11,T2_M11,T3_M11,T4_M11,T5_M11,U1_M11,ZSPAN_M11,X0_M11,X2_M11,X1_M11
2022-12-13 06:00:00,,0811.0,4.99,0.00,22.5,21.0,00.0,31.3,24.3,12.9,0000.1,0012.98,0006.71,0005.78
2022-12-13 06:01:00,,0811.0,5.02,0.00,22.5,21.0,00.0,31.3,24.3,12.9,0000.2,0012.43,0006.67,0005.79
2022-12-13 06:02:00,,0811.0,4.99,0.00,22.5,20.9,00.0,31.3,24.3,12.8,0000.4,0012.57,0006.69,0005.80
2022-12-13 06:03:00,,0811.0,4.99,0.00,22.4,20.9,00.0,31.3,24.3,12.8,0000.6,0013.49,0006.73,0005.81
2022-12-13 06:04:00,,0810.9,4.99,0.00,22.4,20.9,00.0,31.3,24.2,12.9,0000.3,0013.83,0006.76,0005.82
2022-12-13 06:05:00,,0810.9,5.03,0.00,22.4,20.9,00.0,31.3,24.2,12.9,0000.3,0013.50,0006.75,0005.84
2022-12-13 06:06:00,,0810.9,4.99,0.00,22.4,20.9,00.0,31.3,24.3,12.9,0000.1,0013.31,0006.74,0005.87
2022-12-13 06:07:00,,0810.9,4.98,0.00,22.4,20.9,00.0,31.3,24.2,12.9,-000.4,0013.59,0006.85,0005.91
2022-12-13 06:08:00,,0810.9,5.00,0.00,22.4,20.9,00.0,31.3,24.2,12.9,-000.4,0013.55,0006.85,0005.95
2022-12-13 06:09:00,,0810.9,5.03,0.00,22.4,20.8,00.0,31.3,24.2,12.9,-000.1,0013.36,0006.84,0006.00
2022-12-13 06:10:00,,0810.9,4.99,0.00,22.4,20.8,00.0,31.3,24.2,12.9,-000.1,0013.36,0006.90,0006.05
2022-12-13 06:11:00,,0810.9,5.00,0.00,22.3,20.8,00.0,31.2,24.2,12.9,-000.2,0013.29,0006.90,0006.07
2022-12-13 06:12:00,,0810.8,5.02,0.00,22.3,20.7,00.0,31.2,24.2,12.9,-000.3,0013.66,0006.92,0006.09
2022-12-13 06:13:00,,0810.8,4.99,0.00,22.3,20.7,00.0,31.2,24.1,12.9,-000.4,0013.94,0006.92,0006.10
2022-12-13 06:14:00,,0810.8,4.98,0.00,22.3,20.9,00.0,31.2,24.2,12.9,-000.2,0013.23,0006.91,0006.10
2022-12-13 06:15:00,,0810.9,5.02,0.00,22.4,21.8,00.0,31.2,24.3,12.9,-000.0,0013.17,0006.90,0006.09
2022-12-13 06:16:00,,0810.9,5.01,0.00,22.5,22.1,00.0,31.2,24.5,12.9,0000.1,0013.03,0006.91,0006.11
2022-12-13 06:17:00,,0810.9,4.98,0.00,22.5,21.9,00.0,31.3,24.5,12.9,0000.1,0013.12,0006.93,0006.11
2022-12-13 06:18:00,,0810.8,4.99,0.00,22.5,21.7,00.0,31.3,24.4,12.9,0000.6,0012.89,0006.89,0006.11
2022-12-13 06:19:00,,0810.8,5.00,0.00,22.5,21.5,00.0,31.3,24.3,12.9,0000.1,0013.23,0006.88,0006.12
2022-12-13 06:20:00,,0810.8,5.02,0.00,22.5,21.3,00.0,31.3,24.3,12.9,0000.1,0013.29,0006.88,0006.11
2022-12-13 06:21:00,,0810.7,4.98,0.00,22.5,21.1,00.0,31.3,24.3,13.0,-000.1,0013.49,0006.84,0006.10
2022-12-13 06:22:00,,0810.7,4.99,0.00,22.4,21.1,00.0,31.3,24.3,13.0,0000.0,0013.62,0006.88,0006.11
2022-12-13 06:23:00,,0810.7,5.01,0.00,22.4,21.0,00.0,31.3,24.3,13.0,0000.1,0013.76,0006.89,0006.11
2022-12-13 06:24:00,,0810.7,5.00,0.00,22.4,20.9,00.0,31.3,24.3,13.0,-000.1,0012.54,0006.87,0006.12
2022-12-13 06:25:00,,0810.7,4.98,0.00,22.4,20.9,00.0,31.3,24.2,13.1,-000.3,0012.21,0006.90,0006.15
2022-12-13 06:26:00,,0810.7,5.03,0.00,22.4,20.9,00.0,31.3,24.2,13.1,0000.1,0011.89,0006.95,0006.19
2022-12-13 06:27:00,,0810.8,4.98,0.00,22.4,20.8,00.0,31.3,24.2,13.1,-000.1,0012.15,0006.99,0006.22
2022-12-13 06:28:00,,0810.8,5.02,0.00,22.4,20.8,00.0,31.3,24.2,13.1,-000.3,0012.28,0007.03,0006.24
2022-12-13 06:29:00,,0810.8,4.98,0.00,22.4,20.8,00.0,31.2,24.2,13.2,-000.8,0012.86,0007.13,0006.26
2022-12-13 06:30:00,,0810.8,5.00,0.00,22.4,20.9,00.0,31.3,24.2,13.2,-000.6,0012.85,0007.18,0006.27
2022-12-13 06:31:00,,0810.8,5.01,0.00,22.4,20.9,00.0,31.3,24.2,13.2,-001.4,0012.69,0007.19,0006.28
2022-12-13 06:32:00,,0810.8,4.98,0.00,22.3,20.9,00.0,31.2,24.2,13.2,-001.8,0012.33,0007.21,0006.31
2022-12-13 06:33:00,,0810.9,5.02,0.00,22.3,20.8,00.0,31.2,24.1,13.2,-001.8,0012.33,0007.22,0006.33
2022-12-13 06:34:00,,0810.9,4.98,0.00,22.3,20.7,00.0,31.2,24.1,13.2,-001.4,0012.45,0007.24,0006.36
2022-12-13 06:35:00,,0810.9,5.02,0.00,22.3,20.8,00.0,31.2,24.1,13.3,-000.8,0014.44,0007.27,0006.39
2022-12-13 06:36:00,,0811.0,4.98,0.00,22.4,21.5,00.0,31.2,24.3,13.3,-000.7,0015.07,0007.27,0006.39
2022-12-13 06:37:00,,0810.9,5.00,0.00,22.5,22.2,00.0,31.2,24.4,13.2,-001.4,0015.45,0007.24,0006.40
2022-12-13 06:38:00,,0810.9,5.03,0.00,22.5,22.0,00.0,31.2,24.4,13.2,-001.8,0015.44,0007.27,0006.41
2022-12-13 06:39:00,,0810.8,4.99,0.00,22.5,21.7,00.0,31.3,24.4,13.3,-001.2,0015.31,0007.29,0006.43
2022-12-13 06:40:00,,0810.9,4.99,0.00,22.5,21.5,00.0,31.3,24.3,13.3,-001.4,0014.82,0007.21,0006.45
2022-12-13 06:41:00,,0810.9,5.02,0.00,22.5,21.3,00.0,31.3,24.3,13.3,-001.9,0014.53,0007.19,0006.45
2022-12-13 06:42:00,,0810.8,4.98,0.00,22.4,21.2,00.0,31.3,24.2,13.3,-002.0,0014.95,0007.23,0006.47
2022-12-13 06:43:00,,0810.7,5.02,0.00,22.4,21.0,00.0,31.3,24.2,13.4,-001.5,0015.27,0007.24,0006.48
2022-12-13 06:44:00,,0810.7,4.97,0.00,22.4,20.9,00.0,31.3,24.2,13.4,-001.2,0015.23,0007.27,0006.50
2022-12-13 06:45:00,,0810.8,5.02,0.00,22.4,20.9,00.0,31.3,24.2,13.4,-001.5,0014.95,0007.30,0006.53
2022-12-13 06:46:00,,0810.8,4.97,0.00,22.4,20.8,00.0,31.3,24.1,13.5,-001.3,0013.01,0007.32,0006.55
2022-12-13 06:47:00,,0810.8,5.02,0.00,22.4,20.8,00.0,31.3,24.1,13.5,-001.4,0012.49,0007.38,0006.58
2022-12-13 06:48:00,,0810.9,5.00,0.00,22.3,20.7,00.0,31.2,24.1,13.5,-001.2,0012.09,0007.40,0006.61
2022-12-13 06:49:00,,0810.9,5.00,0.00,22.3,20.7,00.0,31.2,24.1,13.5,-001.1,0012.00,0007.42,0006.64
2022-12-13 06:50:00,,0810.9,4.99,0.00,22.3,20.7,00.0,31.2,24.1,13.5,-001.6,0012.06,0007.48,0006.68
2022-12-13 06:51:00,,0810.9,5.01,0.00,22.3,20.7,00.0,31.2,24.1,13.5,-001.3,0012.14,0007.54,0006.70
2022-12-13 06:52:00,,0810.9,5.02,0.00,22.3,20.6,00.0,31.2,24.1,13.6,-000.9,0012.18,0007.57,0006.72
2022-12-13 06:53:00,,0810.9,4.98,0.00,22.3,20.6,00.0,31.2,24.1,13.6,-000.7,0011.85,0007.58,0006.73
2022-12-13 06:54:00,,0811.0,5.01,0.00,22.3,20.6,00.0,31.2,24.0,13.6,-001.0,0011.77,0007.60,0006.74
2022-12-13 06:55:00,,0811.0,4.98,0.00,22.2,20.6,00.0,31.2,24.0,13.7,-001.5,0011.88,0007.61,0006.74
2022-12-13 06:56:00,,0811.0,5.02,0.00,22.2,20.6,00.0,31.1,24.0,13.7,-001.4,0011.96,0007.65,0006.73
2022-12-13 06:57:00,,0811.0,5.02,0.00,22.2,20.7,00.0,31.1,24.0,13.7,-001.8,0012.07,0007.67,0006.75
2022-12-13 06:58:00,,0810.9,4.99,0.00,22.3,21.6,00.0,31.1,24.2,13.7,-001.9,0012.04,0007.65,0006.75
2022-12-13 06:59:00,,0810.9,4.98,0.00,22.4,22.2,00.0,31.1,24.4,13.6,-002.0,0012.16,0007.68,0006.75
